TVF23ZG LDSP-LFPO

Flight info

Callsign TVF23ZG
Flight time 1h 49m
Altitude 34000
Route ZDA DCT PEVAL DCT BABAG DCT SAFFA DCT ELMUR DCT RIPUS DCT DITON DCT HOC DCT MOROK DCT PENDU DCT JAVVU DCT DJL
Aircraft B738/M-SDE2E3FGHIRWXY/LB1

Departure

Time 2026-04-30 18:10
Airport Split Saint Jerome Airport (LDSP)

Arrival

Time 2026-04-30 19:59
Airport Paris-Orly Airport (LFPO)
Time Latitude Longitude Altitude Speed Heading
2026-04-30 17:39 43.53696 16.29805 67 ft 0 kts 113°
2026-04-30 18:05 43.53722 16.29770 65 ft 11 kts 278°
2026-04-30 18:06 43.53667 16.29382 81 ft 19 kts 234°
2026-04-30 18:07 43.53330 16.28777 84 ft 27 kts 233°
2026-04-30 18:08 43.53230 16.28579 66 ft 3 kts 47°
2026-04-30 18:09 43.54590 16.31077 422 ft 163 kts 53°
2026-04-30 18:10 43.56476 16.36523 3225 ft 175 kts 82°
2026-04-30 18:11 43.54381 16.41816 4896 ft 242 kts 180°
2026-04-30 18:11 43.49347 16.39854 5923 ft 292 kts 236°
2026-04-30 18:12 43.50312 16.32743 8454 ft 266 kts 313°
2026-04-30 18:13 43.51831 16.30369 9394 ft 269 kts 314°
2026-04-30 18:13 43.55279 16.24981 10486 ft 305 kts 313°
2026-04-30 18:14 43.58749 16.19468 10918 ft 347 kts 313°
2026-04-30 18:15 43.63548 16.11741 12730 ft 358 kts 312°
2026-04-30 18:15 43.68439 16.03821 14748 ft 365 kts 311°
2026-04-30 18:16 43.71760 15.98433 15961 ft 371 kts 311°
2026-04-30 18:16 43.75129 15.92956 17201 ft 376 kts 311°
2026-04-30 18:17 43.76833 15.90181 17816 ft 379 kts 311°
2026-04-30 18:17 43.78525 15.87424 18405 ft 382 kts 311°
2026-04-30 18:17 43.81993 15.81765 19457 ft 387 kts 311°
2026-04-30 18:18 43.83740 15.78910 20010 ft 389 kts 311°
2026-04-30 18:18 43.85492 15.76044 20501 ft 392 kts 310°
2026-04-30 18:18 43.87255 15.73158 21016 ft 394 kts 310°
2026-04-30 18:18 43.89038 15.70236 21514 ft 396 kts 310°
2026-04-30 18:19 43.90822 15.67309 22008 ft 398 kts 310°
2026-04-30 18:19 43.92617 15.64359 22426 ft 402 kts 311°
2026-04-30 18:19 43.94432 15.61376 22857 ft 406 kts 311°
2026-04-30 18:19 43.96256 15.58373 23332 ft 407 kts 311°
2026-04-30 18:20 43.98087 15.55357 23798 ft 409 kts 311°
2026-04-30 18:20 43.99925 15.52325 24166 ft 412 kts 310°
2026-04-30 18:20 44.01753 15.49306 24532 ft 414 kts 310°
2026-04-30 18:20 44.03608 15.46241 24896 ft 416 kts 310°
2026-04-30 18:21 44.05474 15.43152 25255 ft 418 kts 310°
2026-04-30 18:21 44.07348 15.40050 25602 ft 420 kts 310°
2026-04-30 18:21 44.09231 15.36928 25935 ft 422 kts 310°
2026-04-30 18:21 44.11113 15.33792 26262 ft 423 kts 310°
2026-04-30 18:22 44.12997 15.30631 26611 ft 424 kts 310°
2026-04-30 18:22 44.16776 15.24264 27239 ft 429 kts 310°
2026-04-30 18:22 44.18685 15.21040 27407 ft 434 kts 310°
2026-04-30 18:23 44.20614 15.17783 27636 ft 437 kts 310°
2026-04-30 18:23 44.22551 15.14507 27974 ft 438 kts 310°
2026-04-30 18:23 44.24486 15.11233 28389 ft 437 kts 310°
2026-04-30 18:23 44.26416 15.07963 28842 ft 435 kts 310°
2026-04-30 18:24 44.30220 15.01509 29718 ft 432 kts 310°
2026-04-30 18:24 44.32124 14.98273 30117 ft 431 kts 310°
2026-04-30 18:24 44.34028 14.95035 30471 ft 430 kts 310°
2026-04-30 18:25 44.35921 14.91810 30795 ft 429 kts 310°
2026-04-30 18:25 44.39698 14.85367 31427 ft 428 kts 310°
2026-04-30 18:25 44.41583 14.82146 31771 ft 427 kts 310°
2026-04-30 18:26 44.45361 14.75680 32129 ft 432 kts 310°
2026-04-30 18:26 44.47265 14.72416 32470 ft 430 kts 310°
2026-04-30 18:26 44.49156 14.69168 32853 ft 427 kts 310°
2026-04-30 18:27 44.52898 14.62734 33416 ft 427 kts 310°
2026-04-30 18:27 44.54772 14.59505 33692 ft 426 kts 310°
2026-04-30 18:28 44.58507 14.53061 34263 ft 425 kts 310°
2026-04-30 18:28 44.64128 14.43336 34253 ft 426 kts 310°
2026-04-30 18:29 44.71560 14.30425 34266 ft 424 kts 311°
2026-04-30 18:30 44.78924 14.17575 34273 ft 423 kts 311°
2026-04-30 18:31 44.84461 14.07874 34273 ft 424 kts 311°
2026-04-30 18:32 44.90002 13.98135 34267 ft 425 kts 311°
2026-04-30 18:33 44.95552 13.88344 34271 ft 427 kts 311°
2026-04-30 18:33 45.01110 13.78507 34278 ft 427 kts 311°
2026-04-30 18:34 45.06667 13.68636 34284 ft 428 kts 311°
2026-04-30 18:35 45.10367 13.62045 34284 ft 429 kts 311°
2026-04-30 18:35 45.14071 13.55431 34252 ft 428 kts 312°
2026-04-30 18:36 45.19586 13.45554 34283 ft 428 kts 312°
2026-04-30 18:37 45.25120 13.35609 34287 ft 427 kts 312°
2026-04-30 18:37 45.28793 13.28990 34290 ft 427 kts 312°
2026-04-30 18:38 45.32520 13.22437 34271 ft 424 kts 315°
2026-04-30 18:38 45.36444 13.16263 34282 ft 423 kts 316°
2026-04-30 18:39 45.40258 13.09877 34286 ft 425 kts 311°
2026-04-30 18:39 45.43772 13.03097 34288 ft 426 kts 310°
2026-04-30 18:40 45.47264 12.96247 34294 ft 427 kts 310°
2026-04-30 18:40 45.50771 12.89402 34290 ft 428 kts 310°
2026-04-30 18:41 45.54297 12.82545 34285 ft 429 kts 311°
2026-04-30 18:41 45.57813 12.75705 34288 ft 430 kts 310°
2026-04-30 18:42 45.61350 12.68811 34290 ft 431 kts 310°
2026-04-30 18:42 45.66659 12.58426 34271 ft 431 kts 311°
2026-04-30 18:45 45.85374 12.21511 34289 ft 428 kts 311°
2026-04-30 18:46 45.88857 12.14588 34298 ft 428 kts 311°
2026-04-30 18:46 45.92335 12.07658 34314 ft 427 kts 311°
2026-04-30 18:47 45.95808 12.00720 34321 ft 428 kts 311°
2026-04-30 18:47 45.99293 11.93743 34274 ft 430 kts 311°
2026-04-30 18:48 46.02781 11.86743 34302 ft 431 kts 311°
2026-04-30 18:48 46.06265 11.79730 34309 ft 431 kts 311°
2026-04-30 18:49 46.09742 11.72713 34319 ft 430 kts 311°
2026-04-30 18:49 46.13193 11.65730 34292 ft 430 kts 311°
2026-04-30 18:50 46.16654 11.58712 34281 ft 429 kts 311°
2026-04-30 18:50 46.20115 11.51680 34261 ft 430 kts 311°
2026-04-30 18:51 46.23570 11.44640 34291 ft 430 kts 311°
2026-04-30 18:51 46.27024 11.37584 34266 ft 430 kts 311°
2026-04-30 18:52 46.30481 11.30503 34277 ft 431 kts 311°
2026-04-30 18:52 46.33941 11.23400 34293 ft 431 kts 311°
2026-04-30 18:53 46.37392 11.16296 34288 ft 432 kts 311°
2026-04-30 18:53 46.40849 11.09162 34260 ft 432 kts 311°
2026-04-30 18:54 46.44298 11.02025 34234 ft 432 kts 310°
2026-04-30 18:54 46.47726 10.94915 34253 ft 433 kts 311°
2026-04-30 18:55 46.51200 10.87690 34251 ft 434 kts 311°
2026-04-30 18:55 46.56363 10.76920 34239 ft 437 kts 310°
2026-04-30 18:56 46.61565 10.66023 34249 ft 438 kts 310°
2026-04-30 18:57 46.66757 10.55102 34221 ft 436 kts 310°
2026-04-30 18:57 46.70204 10.47831 34234 ft 436 kts 310°
2026-04-30 18:58 46.74981 10.36455 34239 ft 447 kts 299°
2026-04-30 18:59 46.78540 10.23830 34232 ft 449 kts 298°
2026-04-30 19:00 46.83267 10.07111 34239 ft 446 kts 298°
2026-04-30 19:01 46.88050 9.90305 34244 ft 449 kts 298°
2026-04-30 19:02 46.91634 9.77622 34227 ft 449 kts 297°
2026-04-30 19:03 46.96372 9.60753 34229 ft 449 kts 297°
2026-04-30 19:04 47.01101 9.43800 34217 ft 451 kts 297°
2026-04-30 19:05 47.05825 9.26742 34221 ft 453 kts 296°
2026-04-30 19:06 47.10525 9.09649 34239 ft 454 kts 296°
2026-04-30 19:06 47.14052 8.96742 34257 ft 454 kts 296°
2026-04-30 19:07 47.17502 8.83780 34257 ft 455 kts 295°
2026-04-30 19:08 47.21901 8.66341 34253 ft 455 kts 294°
2026-04-30 19:09 47.25208 8.53263 34261 ft 454 kts 294°
2026-04-30 19:09 47.27406 8.44535 34252 ft 454 kts 294°
2026-04-30 19:10 47.31772 8.27139 34224 ft 454 kts 294°
2026-04-30 19:11 47.35033 8.13994 34251 ft 456 kts 293°
2026-04-30 19:12 47.37207 8.05196 34251 ft 457 kts 293°
2026-04-30 19:12 47.39378 7.96373 34250 ft 458 kts 293°
2026-04-30 19:13 47.43715 7.78649 34236 ft 459 kts 293°
2026-04-30 19:14 47.45800 7.69709 34230 ft 462 kts 287°
2026-04-30 19:14 47.46374 7.60216 34229 ft 469 kts 268°
2026-04-30 19:15 47.45708 7.50604 34224 ft 470 kts 265°
2026-04-30 19:15 47.44646 7.36209 34223 ft 470 kts 266°
2026-04-30 19:16 47.43984 7.26609 34220 ft 470 kts 266°
2026-04-30 19:17 47.43001 7.12267 34203 ft 470 kts 266°
2026-04-30 19:17 47.41992 6.97871 34188 ft 470 kts 265°
2026-04-30 19:18 47.40964 6.83478 34187 ft 469 kts 265°
2026-04-30 19:19 47.40273 6.73944 34187 ft 470 kts 265°
2026-04-30 19:19 47.39211 6.59503 34186 ft 470 kts 264°
2026-04-30 19:20 47.38498 6.49982 34199 ft 469 kts 264°
2026-04-30 19:21 47.37409 6.35631 34189 ft 469 kts 264°
2026-04-30 19:22 47.35935 6.16541 34179 ft 468 kts 264°
2026-04-30 19:23 47.33629 5.88014 34156 ft 467 kts 263°
2026-04-30 19:24 47.32453 5.73760 34153 ft 467 kts 263°
2026-04-30 19:25 47.30505 5.49994 34153 ft 467 kts 263°
2026-04-30 19:26 47.28908 5.31022 34126 ft 467 kts 262°
2026-04-30 19:26 47.28501 5.26242 33540 ft 472 kts 262°
2026-04-30 19:27 47.27693 5.16717 32522 ft 463 kts 264°
2026-04-30 19:27 47.28943 5.07638 31638 ft 453 kts 298°
2026-04-30 19:28 47.30714 5.03848 31180 ft 447 kts 313°
2026-04-30 19:28 47.34971 4.97370 30327 ft 440 kts 315°
2026-04-30 19:29 47.39234 4.90986 29359 ft 433 kts 315°
2026-04-30 19:29 47.41316 4.87803 28920 ft 429 kts 314°
2026-04-30 19:30 47.47407 4.78372 27587 ft 418 kts 314°
2026-04-30 19:30 47.50723 4.73222 26917 ft 412 kts 314°
2026-04-30 19:31 47.54673 4.67079 26290 ft 418 kts 314°
2026-04-30 19:31 47.56691 4.63937 25948 ft 424 kts 314°
2026-04-30 19:31 47.60754 4.57594 25237 ft 421 kts 314°
2026-04-30 19:32 47.62758 4.54458 24899 ft 418 kts 314°
2026-04-30 19:32 47.64744 4.51347 24554 ft 415 kts 314°
2026-04-30 19:32 47.66727 4.48238 24222 ft 413 kts 314°
2026-04-30 19:32 47.68691 4.45154 23892 ft 410 kts 314°
2026-04-30 19:33 47.70644 4.42083 23513 ft 409 kts 314°
2026-04-30 19:33 47.72592 4.39018 23145 ft 407 kts 314°
2026-04-30 19:33 47.74532 4.35962 22784 ft 405 kts 314°
2026-04-30 19:33 47.76456 4.32927 22440 ft 403 kts 314°
2026-04-30 19:34 47.78369 4.29906 22123 ft 401 kts 314°
2026-04-30 19:34 47.80279 4.26885 21799 ft 399 kts 314°
2026-04-30 19:34 47.84072 4.20881 21157 ft 396 kts 314°
2026-04-30 19:35 47.85946 4.17908 20830 ft 395 kts 314°
2026-04-30 19:35 47.87749 4.14830 20496 ft 395 kts 304°
2026-04-30 19:35 47.88865 4.11125 20181 ft 393 kts 285°
2026-04-30 19:35 47.89488 4.07174 19887 ft 391 kts 282°
2026-04-30 19:36 47.90036 4.03215 19569 ft 390 kts 281°
2026-04-30 19:36 47.90572 3.99248 19247 ft 389 kts 281°
2026-04-30 19:36 47.91655 3.91435 18618 ft 386 kts 282°
2026-04-30 19:37 47.92210 3.87534 18267 ft 384 kts 282°
2026-04-30 19:37 47.92768 3.83644 17928 ft 382 kts 282°
2026-04-30 19:37 47.93323 3.79790 17594 ft 379 kts 282°
2026-04-30 19:37 47.93873 3.75964 17282 ft 376 kts 282°
2026-04-30 19:38 47.94417 3.72170 16970 ft 373 kts 282°
2026-04-30 19:38 47.94957 3.68399 16646 ft 370 kts 282°
2026-04-30 19:38 47.95489 3.64650 16356 ft 368 kts 281°
2026-04-30 19:38 47.96014 3.60938 16056 ft 365 kts 281°
2026-04-30 19:39 47.96703 3.57303 15735 ft 363 kts 296°
2026-04-30 19:39 47.98129 3.54244 15467 ft 359 kts 313°
2026-04-30 19:39 47.99860 3.51562 15195 ft 357 kts 315°
2026-04-30 19:39 48.01614 3.48946 14906 ft 356 kts 316°
2026-04-30 19:40 48.03367 3.46342 14614 ft 355 kts 316°
2026-04-30 19:40 48.05111 3.43731 14325 ft 355 kts 315°
2026-04-30 19:40 48.06844 3.41111 14040 ft 354 kts 315°
2026-04-30 19:40 48.08568 3.38489 13724 ft 353 kts 315°
2026-04-30 19:41 48.10285 3.35867 13412 ft 352 kts 315°
2026-04-30 19:41 48.11983 3.33264 13116 ft 350 kts 315°
2026-04-30 19:41 48.13681 3.30659 12821 ft 348 kts 315°
2026-04-30 19:41 48.15365 3.28073 12532 ft 346 kts 315°
2026-04-30 19:42 48.17034 3.25507 12246 ft 341 kts 314°
2026-04-30 19:42 48.18672 3.22985 11962 ft 336 kts 315°
2026-04-30 19:42 48.20287 3.20494 11694 ft 331 kts 315°
2026-04-30 19:42 48.21881 3.18039 11435 ft 326 kts 315°
2026-04-30 19:43 48.23447 3.15627 11170 ft 321 kts 314°
2026-04-30 19:43 48.24991 3.13244 10890 ft 316 kts 315°
2026-04-30 19:43 48.26517 3.10892 10655 ft 312 kts 314°
2026-04-30 19:44 48.29500 3.06283 10161 ft 303 kts 314°
2026-04-30 19:44 48.30941 3.04054 10128 ft 291 kts 314°
2026-04-30 19:44 48.32337 3.01890 9827 ft 290 kts 314°
2026-04-30 19:44 48.33727 2.99735 9624 ft 285 kts 313°
2026-04-30 19:45 48.35091 2.97620 9408 ft 281 kts 313°
2026-04-30 19:45 48.36430 2.95543 9232 ft 278 kts 313°
2026-04-30 19:45 48.37779 2.93451 9063 ft 278 kts 313°
2026-04-30 19:45 48.39127 2.91359 8881 ft 278 kts 313°
2026-04-30 19:46 48.40471 2.89273 8696 ft 278 kts 313°
2026-04-30 19:46 48.41816 2.87179 8533 ft 277 kts 313°
2026-04-30 19:46 48.43157 2.85089 8359 ft 277 kts 312°
2026-04-30 19:46 48.44496 2.82996 8183 ft 278 kts 311°
2026-04-30 19:47 48.45487 2.80552 7991 ft 274 kts 283°
2026-04-30 19:47 48.45706 2.78700 7909 ft 271 kts 272°
2026-04-30 19:47 48.45803 2.74918 7680 ft 270 kts 270°
2026-04-30 19:47 48.45862 2.72094 7510 ft 270 kts 270°
2026-04-30 19:48 48.45933 2.69267 7340 ft 270 kts 271°
2026-04-30 19:48 48.46009 2.66443 7174 ft 269 kts 270°
2026-04-30 19:48 48.46091 2.63629 6997 ft 268 kts 274°
2026-04-30 19:48 48.46643 2.60972 6823 ft 267 kts 297°
2026-04-30 19:49 48.47571 2.58573 6678 ft 265 kts 298°
2026-04-30 19:49 48.49441 2.53765 6327 ft 267 kts 297°
2026-04-30 19:49 48.50376 2.51351 6150 ft 267 kts 297°
2026-04-30 19:50 48.51311 2.48931 5982 ft 267 kts 297°
2026-04-30 19:50 48.52242 2.46513 5811 ft 267 kts 297°
2026-04-30 19:50 48.53174 2.44088 5638 ft 267 kts 297°
2026-04-30 19:50 48.54101 2.41673 5474 ft 266 kts 297°
2026-04-30 19:51 48.55026 2.39257 5307 ft 265 kts 297°
2026-04-30 19:51 48.55946 2.36853 5145 ft 264 kts 297°
2026-04-30 19:51 48.56867 2.34440 4857 ft 266 kts 297°
2026-04-30 19:51 48.57779 2.32052 4661 ft 261 kts 297°
2026-04-30 19:52 48.58678 2.29697 4464 ft 255 kts 297°
2026-04-30 19:52 48.58879 2.29169 4417 ft 253 kts 297°
2026-04-30 19:52 48.59523 2.27480 4250 ft 248 kts 297°
2026-04-30 19:52 48.60374 2.25246 3998 ft 243 kts 297°
2026-04-30 19:53 48.61214 2.23038 3742 ft 244 kts 297°
2026-04-30 19:53 48.62057 2.20818 3508 ft 244 kts 297°
2026-04-30 19:53 48.62889 2.18626 3262 ft 244 kts 297°
2026-04-30 19:53 48.63722 2.16426 3090 ft 236 kts 297°
2026-04-30 19:54 48.64516 2.14336 3008 ft 222 kts 300°
2026-04-30 19:54 48.65562 2.12777 2982 ft 209 kts 340°
2026-04-30 19:54 48.66961 2.12670 2999 ft 201 kts 26°
2026-04-30 19:54 48.67930 2.13971 2990 ft 182 kts 72°
2026-04-30 19:55 48.68264 2.15769 2938 ft 179 kts 78°
2026-04-30 19:55 48.68612 2.17590 2752 ft 181 kts 78°
2026-04-30 19:55 48.68943 2.19379 2515 ft 171 kts 79°
2026-04-30 19:55 48.69247 2.21045 2284 ft 157 kts 79°
2026-04-30 19:56 48.69524 2.22557 2131 ft 139 kts 79°
2026-04-30 19:56 48.69770 2.23943 1935 ft 133 kts 78°
2026-04-30 19:56 48.70023 2.25318 1752 ft 137 kts 78°
2026-04-30 19:56 48.70281 2.26707 1530 ft 138 kts 75°
2026-04-30 19:57 48.70536 2.28113 1354 ft 140 kts 76°
2026-04-30 19:57 48.70801 2.29582 1251 ft 142 kts 75°
2026-04-30 19:57 48.71069 2.30964 1012 ft 137 kts 73°
2026-04-30 19:57 48.71317 2.32400 785 ft 142 kts 73°
2026-04-30 19:58 48.71583 2.33864 623 ft 143 kts 75°
2026-04-30 19:58 48.71839 2.35272 412 ft 139 kts 74°
2026-04-30 19:58 48.72096 2.36662 287 ft 130 kts 72°
2026-04-30 19:58 48.72299 2.37803 282 ft 91 kts 75°
2026-04-30 19:59 48.72419 2.38449 286 ft 38 kts 73°
2026-04-30 19:59 48.72516 2.38625 283 ft 20 kts 22°
2026-04-30 19:59 48.72808 2.38771 282 ft 19 kts
2026-04-30 20:00 48.72845 2.38698 279 ft 9 kts 268°
2026-04-30 20:00 48.72837 2.38573 281 ft 16 kts 264°
2026-04-30 20:00 48.72823 2.38397 279 ft 17 kts 256°
2026-04-30 20:00 48.72789 2.38215 280 ft 19 kts 253°
2026-04-30 20:01 48.72797 2.37865 285 ft 18 kts 320°
2026-04-30 20:01 48.72795 2.37694 281 ft 17 kts 253°
2026-04-30 20:01 48.72764 2.37524 280 ft 16 kts 255°
2026-04-30 20:02 48.72704 2.37205 285 ft 15 kts 254°
2026-04-30 20:02 48.72676 2.37055 285 ft 14 kts 254°
2026-04-30 20:03 48.72620 2.36776 281 ft 13 kts 252°
2026-04-30 20:03 48.72587 2.36649 284 ft 13 kts 247°
2026-04-30 20:03 48.72560 2.36521 284 ft 12 kts 255°
2026-04-30 20:03 48.72537 2.36398 281 ft 8 kts 255°
2026-04-30 20:04 48.72523 2.36318 282 ft 8 kts 255°
2026-04-30 20:04 48.72548 2.36261 281 ft 8 kts 347°
2026-04-30 20:04 48.72583 2.36250 280 ft 0 kts 348°
2026-04-30 20:05 48.72589 2.36249 280 ft 0 kts 348°